sat.trackr.live / text

‹ back to catalog

UNKNOWN

NORAD 85210

UNKNOWN UNKNOWN UNKNOWN

§ Identity

Operator
Country
Launch date
Launch site
Launch vehicle
Mass (kg)
RCS (m²)

External: N2YO · Heavens-Above

§ Orbital elements

Epoch: 2026-09-17T16:39:20.436192Z

Period
104.96 min
Inclination
99.8828°
Eccentricity
0.0212535
Mean motion
13.71934081 rev/d
Perigee alt
836.0 km
Apogee alt
1,149.3 km
Semi-major
7,370.8 km
B*
4.6315e-4
RAAN
54.7034°
Arg perigee
320.0047°
Mean anomaly
51.4152°
Rev number
64,040

§ Raw data

UNKNOWN1 85210U          26260.69398653  .00000444  00000+0  46315-3 0  99942 85210  99.8828  54.7034 0212535 320.0047  51.4152 13.71934081640408

JSON: /api/v1/satellites/85210 · /tle

For live sub-satellite position, see the globe view (requires WebGL).

§ Visibility from observer

Set your observer location to see the next 7 days of passes ≥ 10°. The values pass through the URL so the page stays shareable.

No JS? Fill the form by hand. The geolocation button needs JavaScript.